Hourly Data Report for November 22, 2019

All times are specified in Local Standard Time (LST). Add 1 hour to adjust for Daylight Saving Time where and when it is observed.

HOPE A
BRITISH COLUMBIA
Current Station Operator: NAVCAN

49°22'06.000" N
121°29'53.000" W
39.00 m
1113542
71187
YHE

Download Data

Hourly Data (November 2019)
Hourly Data Report for November 22, 2019
TIME Temp Definition
°C
Dew Point Definition
°C
Rel Hum Definition
%
Wind Dir Definition
10's deg

Wind Spd Definition
km/h
Visibility Definition
km
Stn Press Definition
kPa
Hmdx Definition


Wind Chill Definition


Weather Definition


00:00 -0.3 -1.0 95 9 8 16.1 101.61   -3 LegendNANA
01:00 -0.6 -1.2 96 11 11 16.1 101.62   -4 LegendNANA
02:00 -0.5 -1.2 95 13 11 16.1 101.65   -4 LegendNANA
03:00 -0.6 -1.2 96 11 8 16.1 101.75   -3 LegendNANA
04:00 -0.8 -1.2 97 10 11 16.1 101.79   -5 LegendNANA
05:00 -0.7 -1.3 96 11 9 16.1 101.86   -4 LegendNANA
06:00 -1.0 -1.4 97 10 13 16.1 101.92   -5 LegendNANA
07:00 -1.4 -1.8 97 11 15 16.1 101.94   -6 LegendNANA
08:00 -1.1 -1.7 96 11 15 16.1 102.04   -6 LegendNANA
09:00 -0.7 -1.3 96 11 13 16.1 102.13   -5 LegendNANA
10:00 0.5 -0.7 92 12 15 16.1 102.19     LegendNANA
11:00 2.8 0.2 83 10 15 16.1 102.10     LegendNANA
12:00 2.5 -0.1 83 13 5 16.1 102.03     LegendNANA
13:00 0.8 -0.3 93 23 5 16.1 102.07     LegendNANA
14:00 2.1 0.2 87 LegendMM 4 16.1 102.08     LegendNANA
15:00 3.4 0.8 83   0 16.1 102.00     LegendNANA
16:00 2.9 0.8 86   0 16.1 102.03     LegendNANA
17:00 3.4 1.6 88 LegendMM 4 16.1 102.12     LegendNANA
18:00 2.5 1.5 93   0 16.1 102.15     LegendNANA
19:00 1.7 0.8 94   0 16.1 102.16     LegendNANA
20:00 1.0 0.5 97   0 16.1 102.20     LegendNANA
21:00 1.1 0.7 97   0 16.1 102.20     LegendNANA
22:00 0.8 0.5 98 LegendMM 4 16.1 102.15     LegendNANA
23:00 1.3 0.9 97 LegendMM 4 16.1 102.16     LegendNANA

Notes on Data Quality.

Legend

  • E = Estimated
  • M = Missing
  • NA = Not Available*
  • [empty] = Indicates an unobserved value
Date modified: